22.2.2020 Tornio Ralli

Tulokset  Keskeyttäneet (52)  AT-pisteet (7)  Tilastot Lähtöön oikeutettujen lista CSV


        EK2 >> Yleiskilpailun tulos
Tornio Ralli
22.2.2020
EK 1, LUOKKATULOKSET
Lisäluokat
Tornion Ralliharrastajat
Torando1
 
Luokka 2 , Historic gr2,4, a yli 1350 60-90 vm. 2wd , Lähti:7
EK1, 1.37km, nopein: 45km/h
SijNroNimiTulosEro
1113Jani Ahola1:49,5
2117Esa Huovinen1:49,70,2
3119jouni kumpulainen1:54,44,9
4114Jarmo Holtinkoski1:55,45,9
5115Jari Lukkarila2:03,714,2
6116samuli mustonen2:05,816,3
7118Jesse Aho2:13,624,1
Tulos EK 1 jälkeen
SijNroNimiTulosEro
1113Jani Ahola1:49,5
2117Esa Huovinen1:49,7 0,2
3119jouni kumpulainen1:54,4 4,9
4114Jarmo Holtinkoski1:55,4 5,9
5115Jari Lukkarila2:03,7 14,2
6116samuli mustonen2:05,8 16,3
7118Jesse Aho2:13,6 24,1

 
Luokka 10 , Naiset cc vapaa 2wd , Lähti:3
EK1, 1.37km, nopein: 42.8km/h
SijNroNimiTulosEro
138Katja Kehus1:55,1
236Sara Vainikainen1:57,92,8
337Marika Laukkanen2:00,35,2
Tulos EK 1 jälkeen
SijNroNimiTulosEro
138Katja Kehus1:55,1
236Sara Vainikainen1:57,9 2,8
337Marika Laukkanen2:00,3 5,2

 
Luokka 14 , F, A, HR alle 1650 2wd Nuotti , Lähti:4
EK1, 1.37km, nopein: 46.5km/h
SijNroNimiTulosEro
173Patrik Goman1:46,1
270Benjamin Korhola €1:47,41,3
371Mielityinen Eemil1:47,71,6
472Jonne Ollikainen1:49,43,3
Tulos EK 1 jälkeen
SijNroNimiTulosEro
173Patrik Goman1:46,1
270Benjamin Korhola €1:47,4 1,3
371Mielityinen Eemil1:47,7 1,6
472Jonne Ollikainen1:49,4 3,3

 
Luokka 18 , VW aircooled 2wd , Lähti:0
 
Luokka 19 , Lada orginal 2wd , Lähti:2
EK1, 1.37km, nopein: 41.7km/h
SijNroNimiTulosEro
1107Ari Koskinen1:58,3
2106Ari Anttonen2:19,521,2
Tulos EK 1 jälkeen
SijNroNimiTulosEro
1107Ari Koskinen1:58,3
2106Ari Anttonen2:19,5 21,2

 
Luokka 21 , Aloittelijoiden luokka (max. 5 kilpailua) , Lähti:15
EK1, 1.37km, nopein: 44.1km/h
SijNroNimiTulosEro
1188Mikko Kaarlela1:51,9
2192Jari Sysimetsä1:56,44,5
3198Eerikki Salmela1:56,54,6
4197Ari Kivelä1:58,56,6
5200Juha Niiranen1:59,57,6
6190Matti Löytynoja1:59,87,9
7195Henry Kehus1:59,87,9
8193Petri Kinnunen2:00,78,8
9199Aleksi Kehus2:00,78,8
10196Niko Mettovaara2:01,19,2
11189Tuomas Junes2:04,612,7
12201Teijo Heikkinen2:05,914,0
13203Eero Lammi2:11,920,0
14194Kimmo Pakonen2:21,429,5
15191Kimmo Liljamaa2:47,855,9
Tulos EK 1 jälkeen
SijNroNimiTulosEro
1188Mikko Kaarlela1:51,9
2192Jari Sysimetsä1:56,4 4,5
3198Eerikki Salmela1:56,5 4,6
4197Ari Kivelä1:58,5 6,6
5200Juha Niiranen1:59,5 7,6
6190Matti Löytynoja1:59,8 7,9
7195Henry Kehus1:59,8 7,9
8193Petri Kinnunen2:00,7 8,8
9199Aleksi Kehus2:00,7 8,8
10196Niko Mettovaara2:01,1 9,2
11189Tuomas Junes2:04,6 12,7
12201Teijo Heikkinen2:05,9 14,0
13203Eero Lammi2:11,9 20,0
14194Kimmo Pakonen2:21,4 29,5
15191Kimmo Liljamaa2:47,8 55,9